www.pogodaiklimat.ru

АРХИВ ПОГОДЫ в Алматы

Время (UTC), дата Ветер
(напр.,м/с)
 
Видим.   Явления Облачность Т
(С)
Тd
(С)
f
(%)
Тe
(С)
Тes
(С)
Комфортность P
(гПа)
Po
(гПа)
Тmin
(С)
Tmax
(С)
R
(мм)
S
(см)
15 11.01 штиль 0 н/о 10/0
[Ci sp]
+6.3 -10.3 29 +6 +6 тепло 1020.7 921.3 +9.0
18 11.01 штиль 0 н/о 8/0
[Ci sp]
+5.0 -5.6 46 +5 +10 тепло 1023.8 921.5 +9.0
21 11.01 штиль 0 н/о 10/0
[Cs]
+2.0 -8.9 44 +2 +2 тепло 1024.3 923.2
00 12.01 штиль 0
{3}
н/о 10/4 600 м
[Cb cap Cs]
-1.1 -6.6 66 -2 -2 по сезону 1027.2 924.7
03 12.01 штиль 0 10 км 10/0
[Ac und]
+0.3 -6.3 61 -0 -0 по сезону 1026.5 924.5 9
06 12.01 В 1 10 км 10/0
[As trans]
+1.0 -6.5 57 -0 +2 по сезону 1025.6 924.0 -1.7
09 12.01 В 2 10 км 10/0
[Ac lent Cs]
+1.3 -5.0 63 -2 -0 по сезону 1025.0 923.5
12 12.01 СЗ 1 10 км 10/0
[Ci sp]
+0.2 -2.6 81 -2 -2 по сезону 1025.0 923.2
15 12.01 штиль 0 н/о 10/6 300 м
[St Ac As]
-0.5 -2.2 88 -2 -2 по сезону 1026.1 923.9 +1.9
18 12.01 штиль 0 н/о ливневой снег 10/10 300 м
[Cb cap]
-0.2 -1.6 90 -1 -1 по сезону 1026.1 924.1 +1.9
21 12.01 штиль 0 н/о ливневой снег 10/10 200 м
[Cb cap]
-0.5 -0.8 98 -2 -2 по сезону 1025.9 923.8
00 13.01 С 1
{4}
н/о ливневой снег 10/10 200 м
[Cb cap]
-3.0 -3.7 95 -5 -5 по сезону 1027.3 924.1
03 13.01 СВ 1 4000 м слабый ливневой снег 10/10 300 м
[Cb cap]
-3.9 -4.7 94 -6 -6 по сезону 1028.7 925.1 16
06 13.01 В 1 4000 м слабый ливневой снег 10/10 300 м
[Cb cap]
-3.9 -4.7 94 -6 -6 прохладно 1028.8 925.2 -4.2 5
09 13.01 ЮВ 2 4000 м слабый ливневой снег 10/10 300 м
[Cb cap]
-4.3 -5.2 93 -9 -9 холодно 1027.7 924.0
12 13.01 СВ 1 4000 м слабый ливневой снег 10/10 300 м
[Cb cap]
-4.5 -5.7 91 -7 -7 прохладно 1028.8 924.9
15 13.01 штиль 0 н/о слабый ливневой снег 10/10 600 м
[Cb cap]
-4.8 -5.7 93 -6 -6 по сезону 1029.5 925.4 -3.8
18 13.01 ЮВ 2 н/о слабый ливневой снег 10/10 600 м
[Cb cap]
-6.3 -7.1 94 -11 -11 холодно 1030.4 925.7 -3.8 3
21 13.01 штиль 0 н/о слабый ливневой снег 10/10 600 м
[Cb cap]
-7.0 -7.9 93 -8 -8 по сезону 1030.7 925.6
00 14.01 штиль 0
{4}
н/о {ливн. осадки} 10/10 600 м
[Cb cap]
-7.9 -8.9 93 -9 -9 по сезону 1031.3 925.8
03 14.01 штиль 0 10 км 10/6 600 м
[Cb cap Ac und]
-8.0 -9.8 87 -9 -9 прохладно 1031.6 926.1 18
06 14.01 С 1 10 км 8/4 600 м
[Cb cap Ci fib]
-5.0 -8.5 76 -7 -5 прохладно 1030.3 926.0 -8.1 2
09 14.01 штиль 0 10 км 9/5 600 м
[Cb cap Ac trans Ci sp]
-6.1 -8.7 82 -7 -6 прохладно 1031.2 926.4
12 14.01 С 1 10 км 10/8 600 м
[Cb cap Ac As]
-7.2 -8.9 88 -10 -10 холодно 1032.6 927.3
15 14.01 штиль 0 н/о 10/8 600 м
[Cb cap Ac und]
-7.2 -8.5 90 -8 -8 прохладно 1033.2 927.8 -4.4
18 14.01 штиль 0 н/о 10/0
[Ac As]
-7.4 -8.3 93 -8 -8 по сезону 1033.0 927.6 -4.4
21 14.01 штиль 0 н/о 10/0
[Ac As]
-7.7 -8.7 93 -8 -8 по сезону 1033.4 927.9
00 15.01 ЮЗ 1
{3}
н/о 10/0
[Ac und]
-8.1 -9.1 92 -11 -11 прохладно 1033.4 927.7
03 15.01 штиль 0 10 км 10/10 300 м
[St]
-8.9 -10.0 92 -10 -10 холодно 1034.4 928.3 18
06 15.01 С 1 4000 м дымка 10/10 300 м
[St]
-7.9 -9.3 90 -10 -10 очень
холодно
1033.9 928.2 -8.9
09 15.01 штиль 0 4000 м дымка 10/10 300 м
[St]
-6.9 -8.1 91 -8 -8 холодно 1032.8 927.6
12 15.01 штиль 0 4000 м дымка 10/10 600 м
[St]
-7.5 -9.2 88 -8 -8 прохладно 1033.5 928.0
15 15.01 штиль 0 н/о дымка 10/10 600 м
[St]
-8.3 -9.0 95 -9 -9 прохладно 1033.7 927.9 -6.7
18 15.01 штиль 0 н/о дымка 10/10 600 м
[St]
-8.3 -9.3 92 -9 -9 прохладно 1032.5 926.8 -6.7
21 15.01 ЮВ 1 н/о 10/10 600 м
[St]
-9.2 -10.3 92 -12 -12 холодно 1032.3 926.3
00 16.01 СВ 1
{2}
н/о 10/10 600 м
[St]
-10.2 -11.1 93 -13 -13 холодно 1032.3 925.9
03 16.01 З 1 1000 м дымка 10/10 300 м
[St]
-9.8 -11.0 91 -12 -12 холодно 1032.6 926.3 16
06 16.01 С 1 1000 м дымка 10/8 300 м
[St As op]
-7.8 -9.5 88 -10 -10 очень
холодно
1031.0 925.6 -10.5
09 16.01 штиль 0 1000 м дымка 9/9 300 м
[St]
-7.1 -9.1 86 -8 -8 прохладно 1030.2 925.2
12 16.01 штиль 0 1000 м дымка 10/10 300 м
[St]
-8.8 -10.3 89 -9 -9 холодно 1031.3 925.5
15 16.01 штиль 0 н/о дымка 10/10 200 м
[St]
-9.2 -9.9 95 -10 -10 холодно 1031.7 925.7 -6.6
18 16.01 штиль 0 н/о дымка 10/10 200 м
[St]
-9.8 -10.6 94 -10 -10 прохладно 1031.9 925.6 -6.6
21 16.01 штиль 0 н/о переохл. туман ?/? -10.9 -11.3 97 -11 -11 прохладно 1032.7 926.0
00 17.01 штиль 0
{4}
н/о переохл. туман ?/? -11.8 -12.2 97 -12 -12 прохладно 1033.4 926.3
03 17.01 штиль 0 500 м слабый снег {туман} туман ?/? -11.7 -12.1 97 -12 -12 холодно 1034.0 926.8 13
06 17.01 штиль 0 1000 м дымка {снег, туман} 9/8 300 м
[St]
-9.5 -11.1 88 -10 -9 холодно 1033.5 927.2 -11.8 0.0
09 17.01 С 1 1000 м дымка ясно -6.7 -11.1 71 -9 -6 холодно 1031.3 926.3
12 17.01 С 1 4000 м дым ясно -10.8 -13.1 83 -13 -13 очень
холодно
1034.5 927.6
15 17.01 штиль 0 н/о дымка 9/0
[Ci sp]
-11.8 -12.4 95 -12 -12 холодно 1035.2 927.9 -6.5
18 17.01 штиль 0 н/о слабый снег 10/10 300 м
[St]
-11.5 -12.1 95 -12 -12 холодно 1033.9 926.8 -6.5 0.0
21 17.01 штиль 0 н/о дымка {снег} 5/5 300 м
[St]
-13.0 -13.8 94 -13 -13 холодно 1033.9 926.2
00 18.01 штиль 0
{2}
н/о {снег} 3/3 300 м
[St]
-13.8 -14.7 93 -14 -14 холодно 1033.9 925.9
03 18.01 штиль 0 20 км 1/0
[Ci fib]
-12.1 -13.0 93 -12 -12 холодно 1033.9 926.6 13
06 18.01 СВ 1 4000 м дым ясно -4.5 -10.7 62 -6 -2 прохладно 1031.3 927.1 -13.9
09 18.01 СВ 1 4000 м дым ясно -1.3 -8.1 60 -3 0 по сезону 1029.8 927.0
12 18.01 штиль 0 10 км 3/0
[Ci sp]
+0.2 -9.5 48 -0 -0 по сезону 1030.4 928.0

 

Местоположение метеостанции Алматы (Алматинская область, Казахстан): широта 43.23 долгота 76.93 высота над уровнем моря 851 м.

В архиве по умолчанию представлена погода в Алматы за последнюю неделю. Архивные данные за месяц целиком и за предыдущие месяцы, начиная с января 2011 года, Вы можете получить, выбрав интересующий диапазон дат из раскрывающегося списка и нажав кнопку "Ввод!".

Внимание! Время в таблицах - всемирное. Для получения местного времени необходимо прибавить поправку, которая в Алматы равна 6 ч.

Ветер - указаны скорость ветра в м/с - средняя за 10 мин, порывы в срок и между сроками (в фигурных скобках) и направление, откуда дует ветер: С - северный, СВ - северо-восточный, В - восточный, ЮВ - юго-восточный, Ю - южный, ЮЗ - юго-западный, З - западный, СЗ - северо-западный.
Видимость - горизонтальная дальность видимости в метрах или километрах. При видимости от 1 до 10 км при отсутствии осадков обычно наблюдается дымка, при ухудшении видимости до 1 км и менее - туман. В сухую погоду видимость может ухудшаться дымом, пылью или мглою.
Явления - указаны атмосферные явления, наблюдавшиеся в срок или в последний час перед сроком; фигурными скобками обозначены явления, наблюдавшиеся между сроками (за 1-3 часа до срока); квадратными скобками обозначены град или гололедные отложения с указанием их диаметра в мм.
Облачность - указаны через наклонную черту общая и нижняя облачность в баллах и высота нижней границы облаков в метрах; квадратными скобками обозначены формы облаков: Ci - перистые, Cs - перисто-слоистые, Cc - перисто-кучевые, Ac - высококучевые, As - высокослоистые, Sc - слоисто-кучевые, Ns - слоисто-дождевые, Cu - кучевые, Cb - кучево-дождевые. Подробнее классификацию облаков см. в Атласе облаков (PDF).
T - Температура воздуха - температура, измеренная на высоте 2 м над землей.
Td - Температура точки росы - температура, при понижении до которой содержащийся в воздухе водяной пар достигнет насыщения.
f - Относительная влажность воздуха - влажноcть воздуха, измеренная на высоте 2 м над землей.
Te - Эффективная температура - температура, которую ощущает одетый по сезону человек в тени. Характеристика душности погоды. При расчете учитывается влияние влажности воздуха и скорости ветра на теплоощущения человека.
Tes - Эффективная температура на солнце - температура, которую ощущает человек, с поправкой на солнечный нагрев. Характеристика знойности погоды. Зависит от высоты солнца над горизонтом, облачности и скорости ветра. Ночью, в пасмурную погоду, а также при ветре 12 м/с и более поправка равна нулю.
P - Атмосферное давление - приведенное к уровню моря атмосферное давление.
Po - Атмосферное давление - измеренное на уровне метеостанции атмосферное давление.
Tmin - Минимальная температура - минимум температуры воздуха на высоте 2 м над землей.
Tmax - Максимальная температура - максимум температуры воздуха на высоте 2 м над землей.
R - Количество осадков - Количество выпавших осадков, мм. При наведении курсора мыши на число - период времени, за который выпало указанное количество осадков.
S - Снежный покров - Высота снежного покрова, см. При наведении курсора мыши на число - состояние снежного покрова и степень покрытия местности в баллах.